This demonstration page uses our WeatherBlox Daily Observations layout. Learn more.

Left ArrowRight Arrow

41.86663, -103.66717

Hourly Observations for September 3, 2015

Temp ( °F °C ) Dew Point ( °F °C ) Humidity (%) Winds ( mph kmh ) Pressure ( in mb ) Visibility ( mi km ) Precip ( " mm )
12:53 am 00:53 Clear 67 19.4 51 10.6 57 57 E 6 9 29.75 1008 10 16.0934 0 0
1:53 am 01:53 Clear 66 18.9 52 11.1 61 61 E 6 9 29.74 1007 10 16.0934 0 0
2:53 am 02:53 Clear 64 17.8 51 10.6 63 63 NNE 5 7 29.74 1007 10 16.0934 0 0
3:53 am 03:53 Clear 62 16.7 52 11.1 70 70 NNE 3 6 29.75 1007 10 16.0934 0 0
4:53 am 04:53 Clear 60 15.6 52 11.1 75 75 N 6 9 29.75 1008 10 16.0934 0 0
5:53 am 05:53 Clear 59 15 52 11.1 78 78 WNW 3 6 29.76 1008 10 16.0934 0 0
6:53 am 06:53 Sunny 59 15 52 11.1 78 78 NW 3 6 29.78 1009 10 16.0934 0 0
7:53 am 07:53 Sunny 67 19.4 55 12.8 66 66 Calm 29.79 1009 10 16.0934 0 0
8:53 am 08:53 Sunny 73 22.8 54 12.2 51 51 WNW 5 7 29.79 1009 10 16.0934 0 0
9:53 am 09:53 Sunny 77 25 53 11.7 43 43 VRB 3 6 29.78 1008 10 16.0934 0 0
10:53 am 10:53 Sunny 85 29.4 53 11.7 33 33 Calm 29.76 1008 10 16.0934 0 0
11:53 am 11:53 Sunny 88 31.1 48 8.9 25 25 WSW 7 11 29.74 1007 10 16.0934 0 0
12:53 pm 12:53 Sunny 89 31.7 48 8.9 24 24 WSW 3 6 29.72 1007 10 16.0934 0 0
1:53 pm 13:53 Sunny 88 31.1 49 9.4 26 26 S 6 9 29.72 1007 10 16.0934 0 0
2:53 pm 14:53 Sunny 87 30.6 47 8.3 25 25 SSE 15 24 29.72 1006 10 16.0934 0 0
3:53 pm 15:53 Sunny 84 28.9 49 9.4 30 30 SSE 7 11 29.72 1006 10 16.0934 0 0
4:53 pm 16:53 Sunny 83 28.3 48 8.9 30 30 S 14 22 29.72 1007 10 16.0934 0 0
5:40 pm 17:40 Mostly Cloudy with Light Rain 81 27 46 8 30 30 SSE 31 50 29.62 1003 8 12.87472 0 0
5:53 pm 17:53 Cloudy with Light Rain 80 26.7 47 8.3 31 31 ENE 13 20 29.73 1007 10 16.0934 0 0.0254
6:00 pm 18:00 Cloudy with Light Rain 79 26 48 9 34 34 E 12 19 29.59 1002 10 16.0934 0 0
6:53 pm 18:53 Cloudy with Light Rain 81 27.2 47 8.3 30 30 S 7 11 29.73 1007 10 16.0934 0 0.0254
7:53 pm 19:53 Mostly Cloudy 79 26.1 48 8.9 34 34 VRB 3 6 29.77 1008 10 16.0934 0 0.0254
8:53 pm 20:53 Cloudy 73 22.8 55 12.8 53 53 W 8 13 29.8 1009 10 16.0934 0 0.0254
9:53 pm 21:53 Cloudy with Light Rain 69 20.6 60 15.6 73 73 Calm 29.77 1008 10 16.0934 0.01 0.254
10:53 pm 22:53 Mostly Cloudy 68 20 59 15 73 73 SSW 5 7 29.73 1007 10 16.0934 0 0.0254
11:53 pm 23:53 Cloudy 66 18.9 60 15.6 81 81 Calm 29.71 1006 10 16.0934 0 0

Powered by AerisWeather